| time (UTC) | temp F | wind direction | speed knots | gust knots | rain 1hr in | rain 24hr in | rain mn in | humidity % | barometer mb |
| 20260905230103 | 75 | 167 | 0.0 | 2.6 | 0.00 | 0.00 | 0.00 | 46 | 1017.2 |
| 20260905224605 | 74 | 0 | 0.9 | 2.6 | 0.00 | 0.00 | 0.00 | 47 | 1017.4 |
| 20260905223101 | 72 | 0 | 0.0 | 3.5 | 0.00 | 0.00 | 0.00 | 49 | 1017.4 |
| 20260905221554 | 70 | 47 | 0.0 | 2.6 | 0.00 | 0.00 | 0.00 | 52 | 1017.5 |
| 20260905220118 | 68 | 68 | 0.0 | 2.6 | 0.00 | 0.00 | 0.00 | 56 | 1017.7 |
| 20260905214600 | 67 | 156 | 0.0 | 2.6 | 0.00 | 0.00 | 0.00 | 57 | 1017.8 |
| 20260905213054 | 67 | 0 | 0.0 | 1.7 | 0.00 | 0.00 | 0.00 | 60 | 1017.7 |
| 20260905211556 | 66 | 179 | 0.0 | 1.7 | 0.00 | 0.00 | 0.00 | 62 | 1018.0 |
| 20260905204555 | 66 | 0 | 0.0 | 1.7 | 0.00 | 0.00 | 0.00 | 62 | 1018.1 |
| 20260905203100 | 66 | 179 | 0.0 | 1.7 | 0.00 | 0.00 | 0.00 | 62 | 1018.2 |
| 20260905201555 | 66 | 157 | 0.9 | 3.5 | 0.00 | 0.00 | 0.00 | 63 | 1018.3 |
| 20260905200101 | 66 | 171 | 0.0 | 2.6 | 0.00 | 0.00 | 0.00 | 63 | 1018.3 |
| 20260905194558 | 65 | 0 | 0.9 | 3.5 | 0.00 | 0.00 | 0.00 | 64 | 1018.3 |
| 20260905193059 | 65 | 167 | 0.0 | 3.5 | 0.00 | 0.00 | 0.00 | 66 | 1018.4 |
| 20260905191603 | 64 | 166 | 0.9 | 2.6 | 0.00 | 0.00 | 0.00 | 67 | 1018.4 |
| 20260905190114 | 64 | 0 | 0.9 | 3.5 | 0.00 | 0.00 | 0.00 | 67 | 1018.3 |
| 20260905184605 | 64 | 168 | 0.0 | 3.5 | 0.00 | 0.00 | 0.00 | 68 | 1018.4 |
| 20260905183119 | 64 | 0 | 0.0 | 1.7 | 0.00 | 0.00 | 0.00 | 68 | 1018.5 |
| 20260905181605 | 63 | 188 | 0.0 | 1.7 | 0.00 | 0.00 | 0.00 | 69 | 1018.6 |
| 20260905180103 | 62 | 0 | 0.0 | 1.7 | 0.00 | 0.00 | 0.00 | 71 | 1018.8 |
| 20260905174606 | 61 | 0 | 0.0 | 2.6 | 0.00 | 0.00 | 0.00 | 74 | 1018.8 |
| 20260905173100 | 61 | 0 | 0.0 | 1.7 | 0.00 | 0.00 | 0.00 | 73 | 1018.7 |
| 20260905171605 | 60 | 227 | 0.0 | 0.9 | 0.00 | 0.00 | 0.00 | 75 | 1018.5 |
| 20260905170104 | 59 | 0 | 0.0 | 0.9 | 0.00 | 0.00 | 0.00 | 78 | 1018.5 |
| 20260905164651 | 59 | 0 | 0.0 | 0.9 | 0.00 | 0.00 | 0.00 | 79 | 1018.5 |
| 20260905163101 | 58 | 0 | 0.0 | 0.9 | 0.00 | 0.00 | 0.00 | 81 | 1018.4 |
| 20260905161559 | 57 | 0 | 0.0 | 0.0 | 0.00 | 0.00 | 0.00 | 83 | 1018.5 |
| 20260905160116 | 57 | 0 | 0.0 | 0.0 | 0.00 | 0.00 | 0.00 | 84 | 1018.4 |
| 20260905154601 | 56 | 0 | 0.0 | 0.9 | 0.00 | 0.00 | 0.00 | 85 | 1018.4 |
| 20260905153106 | 55 | 0 | 0.0 | 0.0 | 0.00 | 0.00 | 0.00 | 86 | 1018.5 |
| 20260905151609 | 54 | 0 | 0.0 | 0.0 | 0.00 | 0.00 | 0.00 | 82 | 1018.5 |
| 20260905150104 | 54 | 0 | 0.0 | 0.0 | 0.00 | 0.00 | 0.00 | 80 | 1018.2 |
| 20260905144603 | 53 | 0 | 0.0 | 0.0 | 0.00 | 0.00 | 0.00 | 80 | 1018.1 |
| 20260905143107 | 52 | 0 | 0.0 | 0.0 | 0.00 | 0.00 | 0.00 | 80 | 1018.0 |
| 20260905141604 | 52 | 0 | 0.0 | 0.0 | 0.00 | 0.00 | 0.00 | 80 | 1017.9 |
| 20260905140111 | 52 | 0 | 0.0 | 0.0 | 0.00 | 0.00 | 0.00 | 81 | 1017.8 |
| 20260905134605 | 52 | 0 | 0.0 | 0.0 | 0.00 | 0.00 | 0.00 | 81 | 1017.7 |
| 20260905133108 | 51 | 0 | 0.0 | 0.0 | 0.00 | 0.00 | 0.00 | 80 | 1017.7 |
| 20260905131611 | 51 | 0 | 0.0 | 0.0 | 0.00 | 0.00 | 0.00 | 80 | 1017.8 |
| 20260905130055 | 51 | 0 | 0.0 | 0.0 | 0.00 | 0.00 | 0.00 | 80 | 1017.7 |
| 20260905124600 | 51 | 0 | 0.0 | 0.0 | 0.00 | 0.00 | 0.00 | 81 | 1017.7 |
| 20260905123102 | 51 | 0 | 0.0 | 0.0 | 0.00 | 0.00 | 0.00 | 81 | 1017.6 |
| 20260905121727 | 51 | 0 | 0.0 | 0.0 | 0.00 | 0.00 | 0.00 | 81 | 1017.6 |
| 20260905121615 | 51 | 0 | 0.0 | 0.0 | 0.00 | 0.00 | 0.00 | 81 | 1017.6 |
| 20260905120113 | 51 | 0 | 0.0 | 0.0 | 0.00 | 0.00 | 0.00 | 81 | 1017.4 |
| 20260905114559 | 51 | 0 | 0.0 | 0.0 | 0.00 | 0.00 | 0.00 | 81 | 1017.4 |
| 20260905113104 | 51 | 0 | 0.0 | 0.0 | 0.00 | 0.00 | 0.00 | 82 | 1017.3 |
| 20260905111611 | 51 | 0 | 0.0 | 0.0 | 0.00 | 0.00 | 0.00 | 82 | 1017.3 |
| 20260905110101 | 51 | 0 | 0.0 | 0.0 | 0.00 | 0.00 | 0.00 | 82 | 1017.4 |
| 20260905104557 | 51 | 0 | 0.0 | 0.0 | 0.00 | 0.00 | 0.00 | 83 | 1017.4 |
| 20260905103059 | 52 | 0 | 0.0 | 0.0 | 0.00 | 0.00 | 0.00 | 83 | 1017.2 |
| 20260905101557 | 52 | 0 | 0.0 | 0.0 | 0.00 | 0.00 | 0.00 | 83 | 1017.2 |
| 20260905094600 | 52 | 0 | 0.0 | 0.0 | 0.00 | 0.00 | 0.00 | 82 | 1017.1 |
| 20260905093055 | 52 | 0 | 0.0 | 0.0 | 0.00 | 0.00 | 0.00 | 83 | 1017.1 |
| 20260905091608 | 52 | 0 | 0.0 | 0.0 | 0.00 | 0.00 | 0.00 | 83 | 1017.0 |
| 20260905090100 | 52 | 0 | 0.0 | 0.0 | 0.00 | 0.00 | 0.00 | 84 | 1017.0 |
| 20260905084619 | 53 | 0 | 0.0 | 0.0 | 0.00 | 0.00 | 0.00 | 84 | 1017.0 |
| 20260905083059 | 53 | 0 | 0.0 | 0.0 | 0.00 | 0.00 | 0.00 | 84 | 1017.0 |
| 20260905081603 | 53 | 0 | 0.0 | 0.0 | 0.00 | 0.00 | 0.00 | 84 | 1017.1 |
| 20260905074605 | 53 | 0 | 0.0 | 0.0 | 0.00 | 0.00 | 0.00 | 85 | 1017.0 |
| 20260905073107 | 53 | 0 | 0.0 | 0.0 | 0.00 | 0.00 | 0.00 | 85 | 1016.9 |
| 20260905071559 | 54 | 0 | 0.0 | 0.0 | 0.00 | 0.00 | 0.00 | 85 | 1016.7 |
| 20260905070106 | 54 | 0 | 0.0 | 0.0 | 0.00 | 0.00 | 0.00 | 86 | 1016.7 |
| 20260905064558 | 54 | 0 | 0.0 | 0.0 | 0.00 | 0.00 | 0.00 | 86 | 1016.5 |
| 20260905063056 | 55 | 0 | 0.0 | 0.0 | 0.00 | 0.00 | 0.00 | 86 | 1016.6 |
| 20260905061610 | 55 | 0 | 0.0 | 0.0 | 0.00 | 0.00 | 0.00 | 86 | 1016.5 |
| 20260905060105 | 56 | 0 | 0.0 | 0.0 | 0.00 | 0.00 | 0.00 | 86 | 1016.5 |
| 20260905054603 | 56 | 0 | 0.0 | 0.0 | 0.00 | 0.00 | 0.00 | 86 | 1016.4 |
| 20260905053141 | 56 | 0 | 0.0 | 0.0 | 0.00 | 0.00 | 0.00 | 86 | 1016.2 |
| 20260905051559 | 57 | 0 | 0.0 | 0.0 | 0.00 | 0.00 | 0.00 | 85 | 1016.2 |
| 20260905050105 | 57 | 0 | 0.0 | 0.0 | 0.00 | 0.00 | 0.00 | 85 | 1016.3 |
| 20260905044602 | 57 | 0 | 0.0 | 0.0 | 0.00 | 0.00 | 0.00 | 85 | 1016.4 |
| 20260905043111 | 57 | 0 | 0.0 | 0.0 | 0.00 | 0.00 | 0.00 | 85 | 1016.3 |
| 20260905041556 | 58 | 0 | 0.0 | 0.0 | 0.00 | 0.00 | 0.00 | 84 | 1016.4 |
| 20260905040104 | 58 | 0 | 0.0 | 0.9 | 0.00 | 0.00 | 0.00 | 84 | 1016.5 |
| 20260905034553 | 58 | 0 | 0.0 | 0.9 | 0.00 | 0.00 | 0.00 | 83 | 1016.4 |
| 20260905033101 | 58 | 0 | 0.0 | 0.9 | 0.00 | 0.00 | 0.00 | 83 | 1016.2 |
| 20260905031602 | 59 | 0 | 0.0 | 1.7 | 0.00 | 0.00 | 0.00 | 82 | 1016.1 |
| 20260905030101 | 59 | 0 | 0.0 | 0.9 | 0.00 | 0.00 | 0.00 | 82 | 1015.8 |
| 20260905024623 | 59 | 0 | 0.0 | 0.9 | 0.00 | 0.00 | 0.00 | 82 | 1015.8 |
| 20260905023105 | 59 | 0 | 0.0 | 1.7 | 0.00 | 0.00 | 0.00 | 82 | 1015.7 |
| 20260905021602 | 60 | 16 | 0.0 | 0.9 | 0.00 | 0.00 | 0.00 | 82 | 1015.7 |
| 20260905020109 | 61 | 0 | 0.0 | 2.6 | 0.00 | 0.00 | 0.00 | 80 | 1015.7 |
| 20260905014600 | 63 | 0 | 0.0 | 1.7 | 0.00 | 0.00 | 0.00 | 76 | 1015.7 |
| 20260905013103 | 63 | 0 | 0.0 | 1.7 | 0.00 | 0.00 | 0.00 | 75 | 1015.7 |
| 20260905011608 | 64 | 0 | 0.0 | 0.9 | 0.00 | 0.00 | 0.00 | 73 | 1015.6 |
| 20260905010104 | 66 | 347 | 0.0 | 0.9 | 0.00 | 0.00 | 0.00 | 67 | 1015.5 |
| 20260905004603 | 69 | 0 | 0.0 | 1.7 | 0.00 | 0.00 | 0.00 | 60 | 1015.3 |
| 20260905003103 | 72 | 335 | 0.0 | 2.6 | 0.00 | 0.00 | 0.00 | 53 | 1015.0 |
| 20260905001606 | 74 | 30 | 0.9 | 3.5 | 0.00 | 0.00 | 0.00 | 47 | 1014.7 |
| 20260905000109 | 75 | 168 | 0.9 | 4.3 | 0.00 | 0.00 | 0.00 | 43 | 1014.5 |
| 20260904234607 | 77 | 181 | 0.0 | 3.5 | 0.00 | 0.00 | 0.00 | 43 | 1014.5 |
| 20260904233100 | 77 | 0 | 0.9 | 3.5 | 0.00 | 0.00 | 0.00 | 43 | 1014.6 |
| 20260904231557 | 76 | 0 | 0.9 | 3.5 | 0.00 | 0.00 | 0.00 | 44 | 1014.3 |